Date String (YYYY-MM-DD hh:mm:ss) UTC,Instrument flags,absolute air pressure of the measurement (hPa),sample flow rate (lpm),inlet stack bypass flow (lpm),air temperature of the measurement (°C),ambient temperature measured by the external sensor (°C),aerosol sample conditioner tube jacket temperature (°C),OPC LED temperature (°C),internal box temperature (°C),relative humidity of the measurement (%),span deviation,mass concentration of particles derived from Lorenz-Mie calculation of OPC scattering (μg/m³),mass concentration of particles derived from Lorenz-Mie calculation of OPC scattering (μg/m³),mass concentration of particles derived from Lorenz-Mie calculation of OPC scattering (μg/m³)
DateTimeUTC,F1_M11,P_M11,Q1_M11,Q2_M11,T1_M11,T2_M11,T3_M11,T4_M11,T5_M11,U1_M11,ZSPAN_M11,X2_M11,X0_M11,X1_M11
2024-04-28 23:00:00,SystemResetWarning,0823.0,5.01,000.00,026.0,025.3,000.0,034.3,027.8,017.9,0000.0,0001.69,0003.84,0001.44
2024-04-28 23:01:00,SystemResetWarning,0823.1,5.01,000.00,026.0,025.4,000.0,034.3,027.8,017.6,0000.0,0001.71,0003.83,0001.45
2024-04-28 23:02:00,SystemResetWarning,0823.1,5.00,000.00,026.0,025.4,000.0,034.3,027.8,018.3,0000.0,0001.70,0003.74,0001.45
2024-04-28 23:03:00,SystemResetWarning,0823.1,5.00,000.00,026.0,025.4,000.0,034.3,027.9,017.4,0000.0,0001.71,0003.98,0001.46
2024-04-28 23:04:00,SystemResetWarning,0823.2,5.00,000.00,026.0,025.4,000.0,034.4,027.9,017.5,0000.0,0001.73,0003.30,0001.46
2024-04-28 23:05:00,SystemResetWarning,0823.2,4.99,000.00,026.1,025.4,000.0,034.4,027.9,017.7,0000.0,0001.74,0002.84,0001.46
2024-04-28 23:06:00,SystemResetWarning,0823.2,4.99,000.00,026.1,025.4,000.0,034.4,027.9,017.4,0000.0,0001.76,0002.89,0001.47
2024-04-28 23:07:00,SystemResetWarning,0823.2,4.99,000.00,026.1,025.4,000.0,034.4,027.9,017.8,0000.0,0001.82,0003.07,0001.47
2024-04-28 23:08:00,SystemResetWarning,0823.2,5.01,000.00,026.1,025.4,000.0,034.4,027.9,017.2,0000.0,0001.80,0003.05,0001.47
2024-04-28 23:09:00,SystemResetWarning,0823.3,5.00,000.00,026.1,025.5,000.0,034.4,027.9,016.7,0000.0,0001.81,0003.09,0001.47
2024-04-28 23:10:00,SystemResetWarning,0823.3,4.99,000.00,026.1,025.5,000.0,034.4,028.0,016.4,0000.0,0001.83,0003.13,0001.47
2024-04-28 23:11:00,SystemResetWarning,0823.4,4.99,000.00,026.1,025.5,000.0,034.5,028.0,016.7,0000.0,0001.80,0003.07,0001.45
2024-04-28 23:12:00,SystemResetWarning,0823.4,5.01,000.00,026.2,025.5,000.0,034.5,028.0,016.8,0000.0,0001.81,0003.12,0001.44
2024-04-28 23:13:00,SystemResetWarning,0823.4,5.01,000.00,026.2,025.5,000.0,034.5,028.0,016.7,0000.0,0001.79,0003.11,0001.43
2024-04-28 23:14:00,SystemResetWarning,0823.4,5.00,000.00,026.2,025.5,000.0,034.5,028.0,016.8,0000.0,0001.77,0002.97,0001.43
2024-04-28 23:15:00,SystemResetWarning,0823.4,4.99,000.00,026.2,025.5,000.0,034.5,028.0,017.6,0000.0,0001.74,0002.47,0001.43
2024-04-28 23:16:00,SystemResetWarning,0823.4,5.00,000.00,026.2,025.5,000.0,034.5,028.0,015.8,0000.0,0001.73,0002.44,0001.42
2024-04-28 23:17:00,SystemResetWarning,0823.3,5.01,000.00,026.2,025.6,000.0,034.6,028.0,015.4,0000.0,0001.69,0002.37,0001.39
2024-04-28 23:18:00,SystemResetWarning,0823.3,5.01,000.00,026.3,025.6,000.0,034.6,028.1,017.8,0000.0,0001.66,0002.30,0001.37
2024-04-28 23:19:00,SystemResetWarning,0823.5,4.99,000.00,026.3,025.6,000.0,034.6,028.1,017.6,0000.0,0001.70,0002.49,0001.37
2024-04-28 23:20:00,SystemResetWarning,0823.5,4.98,000.00,026.3,025.6,000.0,034.6,028.1,017.8,0000.0,0001.74,0002.56,0001.37
2024-04-28 23:21:00,SystemResetWarning,0823.5,5.01,000.00,026.3,025.6,000.0,034.6,028.1,017.4,0000.0,0001.75,0002.61,0001.38
2024-04-28 23:22:00,SystemResetWarning,0823.5,5.02,000.00,026.3,025.6,000.0,034.6,028.1,017.7,0000.0,0001.79,0002.69,0001.39
2024-04-28 23:23:00,SystemResetWarning,0823.6,4.99,000.00,026.3,025.6,000.0,034.6,028.0,017.7,0000.0,0001.79,0002.71,0001.40
2024-04-28 23:24:00,SystemResetWarning,0823.5,4.99,000.00,026.3,025.6,000.0,034.6,028.0,017.5,0000.0,0001.82,0002.76,0001.42
2024-04-28 23:25:00,SystemResetWarning,0823.6,4.99,000.00,026.3,025.6,000.0,034.6,028.0,017.8,0000.0,0001.81,0002.73,0001.42
2024-04-28 23:26:00,SystemResetWarning,0823.6,5.01,000.00,026.3,025.6,000.0,034.6,028.0,018.5,0000.0,0001.84,0002.79,0001.43
2024-04-28 23:27:00,SystemResetWarning,0823.7,5.01,000.00,026.3,025.5,000.0,034.6,028.0,018.2,0000.0,0001.89,0002.91,0001.44
2024-04-28 23:28:00,SystemResetWarning,0823.7,5.00,000.00,026.3,025.5,000.0,034.6,028.0,018.6,0000.0,0001.96,0003.08,0001.47
2024-04-28 23:29:00,SystemResetWarning,0823.7,4.99,000.00,026.3,025.5,000.0,034.7,028.0,018.3,0000.0,0001.98,0003.09,0001.50
2024-04-28 23:30:00,SystemResetWarning,0823.7,4.99,000.00,026.2,025.5,000.0,034.7,028.0,018.3,0000.0,0001.98,0003.02,0001.54
2024-04-28 23:31:00,SystemResetWarning,0823.7,4.99,000.00,026.2,025.5,000.0,034.7,028.0,017.6,0000.0,0001.94,0002.83,0001.55
2024-04-28 23:32:00,SystemResetWarning,0823.7,5.01,000.00,026.3,025.5,000.0,034.7,028.0,018.5,0000.0,0001.90,0002.74,0001.56
2024-04-28 23:33:00,SystemResetWarning,0823.8,5.01,000.00,026.3,025.5,000.0,034.7,028.0,018.6,0000.0,0001.86,0002.63,0001.56
2024-04-28 23:34:00,SystemResetWarning,0823.8,4.98,000.00,026.3,025.5,000.0,034.7,028.0,018.8,0000.0,0001.85,0003.10,0001.56
2024-04-28 23:35:00,SystemResetWarning,0823.8,4.99,000.00,026.3,025.5,000.0,034.7,028.0,018.8,0000.0,0001.85,0003.46,0001.55
2024-04-28 23:36:00,SystemResetWarning,0823.8,5.00,000.00,026.3,025.5,000.0,034.7,028.0,018.3,0000.0,0001.85,0003.50,0001.54
2024-04-28 23:37:00,SystemResetWarning,0823.7,5.01,000.00,026.3,025.6,000.0,034.7,028.1,017.4,0000.0,0001.87,0003.54,0001.54
2024-04-28 23:38:00,SystemResetWarning,0823.8,5.00,000.00,026.3,025.6,000.0,034.7,028.1,015.9,0000.0,0001.85,0003.49,0001.53
2024-04-28 23:39:00,SystemResetWarning,0823.8,5.00,000.00,026.3,025.6,000.0,034.7,028.1,015.8,0000.0,0001.79,0003.41,0001.48
2024-04-28 23:40:00,SystemResetWarning,0823.8,4.99,000.00,026.3,025.6,000.0,034.7,028.1,015.1,0000.0,0001.74,0003.32,0001.43
2024-04-28 23:41:00,SystemResetWarning,0823.8,4.99,000.00,026.3,025.6,000.0,034.7,028.1,016.0,0000.0,0001.69,0003.24,0001.38
2024-04-28 23:42:00,SystemResetWarning,0823.8,4.99,000.00,026.3,025.6,000.0,034.7,028.1,016.6,0000.0,0001.64,0003.20,0001.34
2024-04-28 23:43:00,SystemResetWarning,0823.8,5.01,000.00,026.4,025.7,000.0,034.7,028.1,016.8,0000.0,0001.60,0003.22,0001.29
2024-04-28 23:44:00,SystemResetWarning,0823.8,5.01,000.00,026.4,025.7,000.0,034.7,028.1,017.8,0000.0,0001.56,0003.23,0001.25
2024-04-28 23:45:00,SystemResetWarning,0823.9,5.00,000.00,026.4,025.7,000.0,034.7,028.1,017.9,0000.0,0001.53,0003.01,0001.21
2024-04-28 23:46:00,SystemResetWarning,0823.9,4.99,000.00,026.4,025.6,000.0,034.7,028.1,018.5,0000.0,0001.45,0002.32,0001.16
2024-04-28 23:47:00,SystemResetWarning,0824.0,4.99,000.00,026.4,025.6,000.0,034.7,028.1,017.9,0000.0,0001.40,0002.27,0001.11
2024-04-28 23:48:00,SystemResetWarning,0824.0,5.00,000.00,026.3,025.6,000.0,034.7,028.1,018.5,0000.0,0001.34,0002.31,0001.05
2024-04-28 23:49:00,SystemResetWarning,0824.1,5.01,000.00,026.3,025.6,000.0,034.7,028.1,017.8,0000.0,0001.27,0002.22,0001.01
2024-04-28 23:50:00,SystemResetWarning,0824.1,5.00,000.00,026.3,025.6,000.0,034.7,028.1,018.0,0000.0,0001.23,0002.13,0000.99
2024-04-28 23:51:00,SystemResetWarning,0824.2,5.00,000.00,026.3,025.6,000.0,034.7,028.0,018.5,0000.0,0001.17,0002.01,0000.95
2024-04-28 23:52:00,SystemResetWarning,0824.3,4.99,000.00,026.3,025.5,000.0,034.7,028.0,018.7,0000.0,0001.13,0001.98,0000.91
2024-04-28 23:53:00,SystemResetWarning,0824.3,4.99,000.00,026.3,025.5,000.0,034.7,028.0,018.7,0000.0,0001.08,0001.88,0000.87
2024-04-28 23:54:00,SystemResetWarning,0824.3,5.00,000.00,026.3,025.5,000.0,034.7,028.0,018.5,0000.0,0001.07,0001.86,0000.85
2024-04-28 23:55:00,SystemResetWarning,0824.3,5.01,000.00,026.3,025.5,000.0,034.7,028.0,019.1,0000.0,0001.01,0001.75,0000.81
2024-04-28 23:56:00,SystemResetWarning,0824.4,4.99,000.00,026.3,025.5,000.0,034.7,028.0,019.1,0000.0,0000.94,0001.58,0000.77
2024-04-28 23:57:00,SystemResetWarning,0824.3,4.99,000.00,026.3,025.5,000.0,034.7,028.0,018.8,0000.0,0000.89,0001.49,0000.73
2024-04-28 23:58:00,SystemResetWarning,0824.3,5.00,000.00,026.3,025.4,000.0,034.7,028.0,018.7,0000.0,0000.83,0001.27,0000.70
2024-04-28 23:59:00,SystemResetWarning,0824.3,5.00,000.00,026.3,025.4,000.0,034.7,028.0,019.0,0000.0,0000.79,0001.08,0000.69
